Time,TemperatureF,DewpointF,PressureIn,WindDirection,WindDirectionDegrees,WindSpeedMPH,WindSpeedGustMPH,Humidity,HourlyPrecipIn,Conditions,Clouds,dailyrainin,SoftwareType,DateUTC
2013-10-06 00:13:00,52.0,-99.9,-100.00,SW,218,1.0,4.0,-999,0.00,,,0.03,,2013-10-06 05:13:00,
2013-10-06 00:23:00,52.0,-99.9,-100.00,SW,218,1.0,4.0,-999,0.00,,,0.03,,2013-10-06 05:23:00,
2013-10-06 00:43:00,52.0,-99.9,-100.00,South,182,1.0,3.0,-999,0.00,,,0.03,,2013-10-06 05:43:00,
2013-10-06 00:52:00,52.0,-99.9,-100.00,South,182,1.0,3.0,-999,0.00,,,0.03,,2013-10-06 05:52:00,
2013-10-06 01:13:00,51.0,-99.9,-100.00,South,174,2.0,3.0,-999,0.00,,,0.03,,2013-10-06 06:13:00,
2013-10-06 01:22:00,51.0,-99.9,-100.00,South,174,2.0,3.0,-999,0.00,,,0.03,,2013-10-06 06:22:00,
2013-10-06 01:42:00,49.0,-99.9,-100.00,SSW,193,3.0,6.0,-999,0.00,,,0.03,,2013-10-06 06:42:00,
2013-10-06 01:52:00,49.0,-99.9,-100.00,SSW,193,3.0,6.0,-999,0.00,,,0.03,,2013-10-06 06:52:00,
2013-10-06 02:11:00,51.0,-99.9,-100.00,SSW,210,2.0,5.0,-999,0.00,,,0.03,,2013-10-06 07:11:00,
2013-10-06 02:22:00,51.0,-99.9,-100.00,SSW,210,2.0,5.0,-999,0.00,,,0.03,,2013-10-06 07:22:00,
2013-10-06 02:43:00,50.0,-99.9,-100.00,SSW,207,2.0,4.0,-999,0.00,,,0.03,,2013-10-06 07:43:00,
2013-10-06 02:52:00,50.0,-99.9,-100.00,SSW,207,2.0,4.0,-999,0.00,,,0.03,,2013-10-06 07:52:00,
2013-10-06 03:12:00,49.0,-99.9,-100.00,SSW,209,2.0,3.0,-999,0.00,,,0.03,,2013-10-06 08:12:00,
2013-10-06 03:22:00,49.0,-99.9,-100.00,SSW,209,2.0,3.0,-999,0.00,,,0.03,,2013-10-06 08:22:00,
2013-10-06 03:42:00,48.0,-99.9,-100.00,SSW,205,1.0,2.0,-999,0.00,,,0.03,,2013-10-06 08:42:00,
2013-10-06 03:53:00,48.0,-99.9,-100.00,SSW,205,1.0,2.0,-999,0.00,,,0.03,,2013-10-06 08:53:00,
2013-10-06 04:11:00,48.0,-99.9,-100.00,SSW,197,1.0,2.0,-999,0.00,,,-99.99,,2013-10-06 09:11:00,
2013-10-06 04:22:00,48.0,-99.9,-100.00,SSW,197,1.0,2.0,-999,0.00,,,-99.99,,2013-10-06 09:22:00,
2013-10-06 04:43:00,48.0,-99.9,-100.00,SSW,204,2.0,4.0,-999,0.00,,,0.03,,2013-10-06 09:43:00,
2013-10-06 05:13:00,47.0,-99.9,-100.00,SSW,197,1.0,3.0,-999,0.00,,,0.03,,2013-10-06 10:13:00,
2013-10-06 05:23:00,47.0,-99.9,-100.00,SSW,197,1.0,3.0,-999,0.00,,,0.03,,2013-10-06 10:23:00,
2013-10-06 05:43:00,47.0,-99.9,-100.00,SSE,167,2.0,3.0,-999,0.00,,,0.03,,2013-10-06 10:43:00,
2013-10-06 05:53:00,47.0,-99.9,-100.00,SSE,167,2.0,3.0,-999,0.00,,,0.03,,2013-10-06 10:53:00,
2013-10-06 06:12:00,46.0,-99.9,-100.00,South,186,1.0,2.0,-999,0.00,,,0.03,,2013-10-06 11:12:00,
2013-10-06 06:22:00,46.0,-99.9,-100.00,South,186,1.0,2.0,-999,0.00,,,0.03,,2013-10-06 11:22:00,
2013-10-06 06:42:00,45.0,-99.9,-100.00,SSW,192,1.0,3.0,-999,0.00,,,0.03,,2013-10-06 11:42:00,
2013-10-06 06:52:00,45.0,-99.9,-100.00,SSW,192,1.0,3.0,-999,0.00,,,0.03,,2013-10-06 11:52:00,
2013-10-06 07:12:00,45.0,-99.9,-100.00,South,180,1.0,2.0,-999,0.00,,,0.03,,2013-10-06 12:12:00,
2013-10-06 07:22:00,45.0,-99.9,-100.00,South,180,1.0,2.0,-999,0.00,,,0.03,,2013-10-06 12:22:00,
2013-10-06 07:42:00,45.0,-99.9,-100.00,SW,224,3.0,5.0,-999,0.00,,,0.03,,2013-10-06 12:42:00,
2013-10-06 07:52:00,45.0,-99.9,-100.00,SW,224,3.0,5.0,-999,0.00,,,0.03,,2013-10-06 12:52:00,
2013-10-06 08:11:00,45.0,-99.9,-100.00,SW,216,2.0,5.0,-999,0.00,,,0.03,,2013-10-06 13:11:00,
2013-10-06 08:21:00,45.0,-99.9,-100.00,SW,216,2.0,5.0,-999,0.00,,,0.03,,2013-10-06 13:21:00,
2013-10-06 08:42:00,46.0,-99.9,-100.00,SSW,193,3.0,5.0,-999,0.00,,,0.03,,2013-10-06 13:42:00,
2013-10-06 08:52:00,46.0,-99.9,-100.00,SSW,193,3.0,5.0,-999,0.00,,,0.03,,2013-10-06 13:52:00,
2013-10-06 09:11:00,47.0,-99.9,-100.00,SSW,208,5.0,7.0,-999,0.00,,,0.03,,2013-10-06 14:11:00,
2013-10-06 09:22:00,47.0,-99.9,-100.00,SSW,208,5.0,7.0,-999,0.00,,,0.03,,2013-10-06 14:22:00,
2013-10-06 09:42:00,49.0,-99.9,-100.00,SSW,203,3.0,9.0,-999,0.00,,,0.03,,2013-10-06 14:42:00,
2013-10-06 09:52:00,49.0,-99.9,-100.00,SSW,203,3.0,9.0,-999,0.00,,,0.03,,2013-10-06 14:52:00,
2013-10-06 10:11:00,48.0,-99.9,-100.00,SSW,211,3.0,8.0,-999,0.00,,,0.03,,2013-10-06 15:11:00,
2013-10-06 10:22:00,48.0,-99.9,-100.00,SSW,211,3.0,8.0,-999,0.00,,,0.03,,2013-10-06 15:22:00,
2013-10-06 10:44:00,48.0,-99.9,-100.00,SSW,207,5.0,9.0,-999,0.00,,,0.03,,2013-10-06 15:44:00,
2013-10-06 10:54:00,48.0,-99.9,-100.00,SSW,207,5.0,9.0,-999,0.00,,,0.03,,2013-10-06 15:54:00,
2013-10-06 11:12:00,48.0,-99.9,-100.00,SSW,198,5.0,8.0,-999,0.00,,,0.03,,2013-10-06 16:12:00,
2013-10-06 11:23:00,48.0,-99.9,-100.00,SSW,198,5.0,8.0,-999,0.00,,,0.03,,2013-10-06 16:23:00,
2013-10-06 11:43:00,49.0,-99.9,-100.00,SSW,207,4.0,7.0,-999,0.00,,,0.02,,2013-10-06 16:43:00,
2013-10-06 11:53:00,49.0,-99.9,-100.00,SSW,207,4.0,7.0,-999,0.00,,,0.02,,2013-10-06 16:53:00,
2013-10-06 12:12:00,50.0,-99.9,-100.00,SW,230,6.0,10.0,-999,0.00,,,0.00,,2013-10-06 17:12:00,
2013-10-06 12:22:00,50.0,-99.9,-100.00,SW,230,6.0,10.0,-999,0.00,,,0.00,,2013-10-06 17:22:00,
2013-10-06 12:43:00,50.0,-99.9,-100.00,SW,228,3.0,6.0,-999,0.00,,,0.00,,2013-10-06 17:43:00,
2013-10-06 12:53:00,50.0,-99.9,-100.00,SW,228,3.0,6.0,-999,0.00,,,0.00,,2013-10-06 17:53:00,
2013-10-06 13:12:00,52.0,-99.9,-100.00,WSW,239,3.0,5.0,-999,0.00,,,-99.99,,2013-10-06 18:12:00,
2013-10-06 13:22:00,52.0,-99.9,-100.00,WSW,239,3.0,5.0,-999,0.00,,,-99.99,,2013-10-06 18:22:00,
2013-10-06 13:43:00,49.0,-99.9,-100.00,SW,220,5.0,8.0,-999,0.00,,,0.00,,2013-10-06 18:43:00,
2013-10-06 13:52:00,49.0,-99.9,-100.00,SW,220,5.0,8.0,-999,0.00,,,0.00,,2013-10-06 18:52:00,
2013-10-06 14:12:00,52.0,-99.9,-100.00,SSW,207,5.0,13.0,-999,0.00,,,0.00,,2013-10-06 19:12:00,
2013-10-06 14:23:00,52.0,-99.9,-100.00,SSW,207,5.0,13.0,-999,0.00,,,0.00,,2013-10-06 19:23:00,
2013-10-06 14:42:00,52.0,-99.9,-100.00,SSW,210,4.0,8.0,-999,0.00,,,0.00,,2013-10-06 19:42:00,
2013-10-06 14:53:00,52.0,-99.9,-100.00,SSW,210,4.0,8.0,-999,0.00,,,0.00,,2013-10-06 19:53:00,
2013-10-06 15:11:00,51.0,-99.9,-100.00,WSW,243,5.0,8.0,-999,0.01,,,0.01,,2013-10-06 20:11:00,
2013-10-06 15:22:00,51.0,-99.9,-100.00,WSW,243,5.0,8.0,-999,0.01,,,0.01,,2013-10-06 20:22:00,
2013-10-06 15:42:00,52.0,-99.9,-100.00,SW,229,6.0,11.0,-999,0.01,,,0.01,,2013-10-06 20:42:00,
2013-10-06 16:12:00,50.0,-99.9,-100.00,WSW,258,2.0,6.0,-999,0.00,,,0.01,,2013-10-06 21:12:00,
2013-10-06 16:22:00,50.0,-99.9,-100.00,WSW,258,2.0,6.0,-999,0.00,,,0.01,,2013-10-06 21:22:00,
2013-10-06 16:45:00,50.0,-99.9,-100.00,WSW,240,6.0,13.0,-999,0.01,,,0.02,,2013-10-06 21:45:00,
2013-10-06 16:55:00,50.0,-99.9,-100.00,WSW,240,6.0,13.0,-999,0.01,,,0.02,,2013-10-06 21:55:00,
2013-10-06 17:13:00,51.0,-99.9,-100.00,WSW,253,3.0,6.0,-999,0.01,,,0.02,,2013-10-06 22:13:00,
2013-10-06 17:24:00,51.0,-99.9,-100.00,WSW,253,3.0,6.0,-999,0.01,,,0.02,,2013-10-06 22:24:00,
2013-10-06 17:43:00,49.0,-99.9,-100.00,SW,224,4.0,7.0,-999,0.01,,,0.03,,2013-10-06 22:43:00,
2013-10-06 18:12:00,49.0,-99.9,-100.00,SW,219,3.0,6.0,-999,0.01,,,0.03,,2013-10-06 23:12:00,
2013-10-06 18:22:00,49.0,-99.9,-100.00,SW,219,3.0,6.0,-999,0.01,,,0.03,,2013-10-06 23:22:00,
2013-10-06 18:42:00,49.0,-99.9,-100.00,SW,226,2.0,4.0,-999,0.00,,,0.03,,2013-10-06 23:42:00,
2013-10-06 18:53:00,49.0,-99.9,-100.00,SW,226,2.0,4.0,-999,0.00,,,0.03,,2013-10-06 23:53:00,
2013-10-06 19:12:00,50.0,-99.9,-100.00,SW,215,3.0,8.0,-999,0.00,,,0.03,,2013-10-07 00:12:00,
2013-10-06 19:22:00,50.0,-99.9,-100.00,SW,215,3.0,8.0,-999,0.00,,,0.03,,2013-10-07 00:22:00,
2013-10-06 19:42:00,50.0,-99.9,-100.00,SSW,195,3.0,5.0,-999,0.01,,,0.04,,2013-10-07 00:42:00,
2013-10-06 20:12:00,50.0,-99.9,-100.00,SW,218,6.0,11.0,-999,0.01,,,0.04,,2013-10-07 01:12:00,
2013-10-06 20:22:00,50.0,-99.9,-100.00,SW,218,6.0,11.0,-999,0.01,,,0.04,,2013-10-07 01:22:00,
2013-10-06 20:42:00,50.0,-99.9,-100.00,SSW,213,5.0,12.0,-999,0.00,,,0.04,,2013-10-07 01:42:00,
2013-10-06 20:53:00,50.0,-99.9,-100.00,SSW,213,5.0,12.0,-999,0.00,,,0.04,,2013-10-07 01:53:00,
2013-10-06 21:12:00,50.0,-99.9,-100.00,SW,228,5.0,9.0,-999,0.00,,,0.04,,2013-10-07 02:12:00,
2013-10-06 21:22:00,50.0,-99.9,-100.00,SW,228,5.0,9.0,-999,0.00,,,0.04,,2013-10-07 02:22:00,
2013-10-06 21:43:00,49.0,-99.9,-100.00,WNW,302,7.0,10.0,-999,0.02,,,0.06,,2013-10-07 02:43:00,
2013-10-06 21:53:00,49.0,-99.9,-100.00,WNW,302,7.0,10.0,-999,0.02,,,0.06,,2013-10-07 02:53:00,
2013-10-06 22:12:00,49.0,-99.9,-100.00,WSW,258,4.0,6.0,-999,0.03,,,0.07,,2013-10-07 03:12:00,
2013-10-06 22:22:00,49.0,-99.9,-100.00,WSW,258,4.0,6.0,-999,0.03,,,0.07,,2013-10-07 03:22:00,
2013-10-06 22:45:00,49.0,-99.9,-100.00,West,259,3.0,8.0,-999,0.01,,,0.07,,2013-10-07 03:45:00,
2013-10-06 22:54:00,49.0,-99.9,-100.00,West,259,3.0,8.0,-999,0.01,,,0.07,,2013-10-07 03:54:00,
2013-10-06 23:14:00,49.0,-99.9,-100.00,WSW,254,3.0,6.0,-999,0.00,,,0.07,,2013-10-07 04:14:00,
2013-10-06 23:25:00,49.0,-99.9,-100.00,WSW,254,3.0,6.0,-999,0.00,,,0.07,,2013-10-07 04:25:00,
2013-10-06 23:44:00,49.0,-99.9,-100.00,WSW,244,4.0,7.0,-999,0.00,,,0.07,,2013-10-07 04:44:00,
2013-10-06 23:53:00,49.0,-99.9,-100.00,WSW,244,4.0,7.0,-999,0.00,,,0.07,,2013-10-07 04:53:00,